Location: Unspecified
(0.0000°N, 0.0000°E)
Time: 18:27:55
(UTC+00:00)

deb Delta 126 - Pass Details

Date: 21 February 2026
Orbit: 1485 x 1545 km, 102.1° (Epoch: 6 March)

Event Time Altitude Azimuth Distance (km) Brightness Sun altitude
Exits shadow 02:10:14 11° 149° (SSE) 3,581 ? -59.1°
Drops below altitude 10° 02:10:31 10° 150° (SSE) 3,642 ? -59.1°
Sets 02:14:17 0° 166° (SSE) 4,618 ? -58.2°
